Weather in Ekvtime Takaishvili

Georgia     41°38′28″N   41°37′43″E
temp.,
°C
wind,
m/s
gust,
m/s
humid.,
%
clouds,
%
prec.,
mm/h
press.,
hPa
HPBL,
m
21 april, wed
wed2101:00+11w1298100 0.1 1017155
04:00+11sw3498100 0.2 1017187
07:00+11sw4595100 0.4 1018243
10:00+11sw349599 1.3 1019335
13:00+12sw459498 0.7 1019417
16:00+11sw4497100 2.7 1020396
19:00+10sw229664 0.9 1021224
22:00+10sw119590 1.1 102192
22 april, thu
thu2201:00+10sw1294100 0.0 1021129
04:00+10ssw129395 0.1 102095
07:00+10sw229298 0.0 1021117
10:00+12s118441 0.1 1022231
13:00+11wnw228157 0.0 1022394
16:00+11wsw347863 0.0 1022470
19:00+10sw3486100 0.0 1023289
22:00+9ssw3591100 1.0 1025303
23 april, fri
fri2301:00+9s2295100 5.7 1025131
04:00+10ese118858 5.8 102513
07:00+10e11875 0.0 102541
10:00+13n32740 0.0 1024450
13:00+16nnw43600 0.0 1022616
16:00+17n445920 0.0 1020571
19:00+15n11752 0.0 101819
22:00+13se2271100 0.0 101822
24 april, sat
sat2401:00+12se226188 0.0 101624
04:00+13se2262100 0.0 101625
07:00+12ese1168100 0.0 101813
10:00+13ssw7983100 0.0 1021577
13:00+13sw567656 0.0 1021569
16:00+14sw456889 0.0 1021543
19:00+12sw34816 0.0 1021186
22:00+10s228636 0.0 102231
25 april, sun
sun2501:00+10se11825 0.0 102012
04:00+10e22846 0.0 101746
07:00+10ssw1283100 0.0 101660
10:00+13wsw3372100 0.0 1016359
13:00+14wsw4468100 0.0 1015422
16:00+13wsw4470100 0.0 1016502
19:00+12wsw3477100 0.0 1017156
22:00+11se1181100 0.1 101628